Time,TemperatureF,DewpointF,PressureIn,WindDirection,WindDirectionDegrees,WindSpeedMPH,WindSpeedGustMPH,Humidity,HourlyPrecipIn,Conditions,Clouds,dailyrainin,SoftwareType,DateUTC
2013-07-17 00:05:00,80.6,72.7,30.18,West,263,2.0,3.0,77,0.00,,,0.00,Wunderground v.1.15,2013-07-17 04:05:00,
2013-07-17 00:10:00,80.5,72.6,30.18,West,261,2.0,2.0,77,0.00,,,0.00,Wunderground v.1.15,2013-07-17 04:10:00,
2013-07-17 00:15:00,80.4,72.9,30.18,West,260,1.0,2.0,78,0.00,,,0.00,Wunderground v.1.15,2013-07-17 04:15:00,
2013-07-17 00:20:00,80.4,72.9,30.18,WSW,255,1.0,3.0,78,0.00,,,0.00,Wunderground v.1.15,2013-07-17 04:20:00,
2013-07-17 00:26:00,80.3,72.8,30.18,WSW,255,1.0,3.0,78,0.00,,,0.00,Wunderground v.1.15,2013-07-17 04:26:00,
2013-07-17 00:35:00,80.2,72.7,30.17,WSW,244,2.0,3.0,78,0.00,,,0.00,Wunderground v.1.15,2013-07-17 04:35:00,
2013-07-17 00:40:00,79.8,72.3,30.18,SW,226,2.0,2.0,78,0.00,,,0.00,Wunderground v.1.15,2013-07-17 04:40:00,
2013-07-17 00:50:00,79.3,72.2,30.17,SW,227,1.0,1.0,79,0.00,,,0.00,Wunderground v.1.15,2013-07-17 04:50:00,
2013-07-17 00:55:00,79.2,72.5,30.17,West,263,1.0,2.0,80,0.00,,,0.00,Wunderground v.1.15,2013-07-17 04:55:00,
2013-07-17 01:05:00,78.9,72.2,30.18,West,268,2.0,2.0,80,0.00,,,0.00,Wunderground v.1.15,2013-07-17 05:05:00,
2013-07-17 01:10:00,78.8,72.1,30.17,WNW,295,2.0,2.0,80,0.00,,,0.00,Wunderground v.1.15,2013-07-17 05:10:00,
2013-07-17 01:15:00,78.9,72.2,30.18,West,267,1.0,2.0,80,0.00,,,0.00,Wunderground v.1.15,2013-07-17 05:15:00,
2013-07-17 01:25:00,79.0,72.3,30.18,West,263,1.0,1.0,80,0.00,,,0.00,Wunderground v.1.15,2013-07-17 05:25:00,
2013-07-17 01:30:00,78.8,72.1,30.18,West,279,1.0,1.0,80,0.00,,,0.00,Wunderground v.1.15,2013-07-17 05:30:00,
2013-07-17 01:35:00,78.7,72.0,30.18,West,279,2.0,2.0,80,0.00,,,0.00,Wunderground v.1.15,2013-07-17 05:35:00,
2013-07-17 01:40:00,78.7,72.0,30.18,West,278,1.0,1.0,80,0.00,,,0.00,Wunderground v.1.15,2013-07-17 05:40:00,
2013-07-17 01:45:00,78.6,71.9,30.18,West,263,1.0,1.0,80,0.00,,,0.00,Wunderground v.1.15,2013-07-17 05:45:00,
2013-07-17 01:50:00,78.6,71.9,30.17,SW,235,1.0,3.0,80,0.00,,,0.00,Wunderground v.1.15,2013-07-17 05:50:00,
2013-07-17 01:55:00,78.5,71.8,30.17,SW,235,2.0,3.0,80,0.00,,,0.00,Wunderground v.1.15,2013-07-17 05:55:00,
2013-07-17 02:05:00,78.5,71.8,30.18,WSW,254,2.0,2.0,80,0.00,,,0.00,Wunderground v.1.15,2013-07-17 06:05:00,
2013-07-17 02:10:00,78.3,71.6,30.18,SW,221,2.0,2.0,80,0.00,,,0.00,Wunderground v.1.15,2013-07-17 06:10:00,
2013-07-17 02:15:00,78.1,71.4,30.17,WSW,245,2.0,2.0,80,0.00,,,0.00,Wunderground v.1.15,2013-07-17 06:15:00,
2013-07-17 02:25:00,78.0,71.3,30.17,WSW,245,1.0,2.0,80,0.00,,,0.00,Wunderground v.1.15,2013-07-17 06:25:00,
2013-07-17 02:30:00,78.0,71.3,30.17,West,265,1.0,1.0,80,0.00,,,0.00,Wunderground v.1.15,2013-07-17 06:30:00,
2013-07-17 02:40:00,77.8,71.1,30.17,SW,227,2.0,3.0,80,0.00,,,0.00,Wunderground v.1.15,2013-07-17 06:40:00,
2013-07-17 02:45:00,77.9,71.2,30.17,SSW,204,2.0,6.0,80,0.00,,,0.00,Wunderground v.1.15,2013-07-17 06:45:00,
2013-07-17 02:55:00,77.8,71.1,30.17,SW,236,2.0,2.0,80,0.00,,,0.00,Wunderground v.1.15,2013-07-17 06:55:00,
2013-07-17 03:05:00,77.5,71.2,30.17,WSW,240,2.0,3.0,81,0.00,,,0.00,Wunderground v.1.15,2013-07-17 07:05:00,
2013-07-17 03:10:00,77.3,71.0,30.17,SW,236,2.0,2.0,81,0.00,,,0.00,Wunderground v.1.15,2013-07-17 07:10:00,
2013-07-17 03:20:00,77.1,71.2,30.17,WSW,246,3.0,3.0,82,0.00,,,0.00,Wunderground v.1.15,2013-07-17 07:20:00,
2013-07-17 03:25:00,77.1,71.2,30.17,WSW,245,2.0,3.0,82,0.00,,,0.00,Wunderground v.1.15,2013-07-17 07:25:00,
2013-07-17 03:35:00,77.0,71.1,30.17,SSW,202,2.0,3.0,82,0.00,,,0.00,Wunderground v.1.15,2013-07-17 07:35:00,
2013-07-17 03:45:00,77.2,70.9,30.16,WSW,253,3.0,3.0,81,0.00,,,0.00,Wunderground v.1.15,2013-07-17 07:45:00,
2013-07-17 03:55:00,77.3,71.0,30.17,WSW,238,1.0,3.0,81,0.00,,,0.00,Wunderground v.1.15,2013-07-17 07:55:00,
2013-07-17 04:00:00,77.4,71.1,30.17,West,278,1.0,3.0,81,0.00,,,0.00,Wunderground v.1.15,2013-07-17 08:00:00,
2013-07-17 04:05:00,77.5,71.2,30.16,West,263,2.0,3.0,81,0.00,,,0.00,Wunderground v.1.15,2013-07-17 08:05:00,
2013-07-17 04:15:00,77.5,71.2,30.17,WSW,252,2.0,5.0,81,0.00,,,0.00,Wunderground v.1.15,2013-07-17 08:15:00,
2013-07-17 04:25:00,77.4,71.1,30.17,WSW,254,2.0,3.0,81,0.00,,,0.00,Wunderground v.1.15,2013-07-17 08:25:00,
2013-07-17 04:30:00,77.4,71.1,30.17,West,281,2.0,2.0,81,0.00,,,0.00,Wunderground v.1.15,2013-07-17 08:30:00,
2013-07-17 04:40:00,77.2,70.9,30.17,SW,225,2.0,2.0,81,0.00,,,0.00,Wunderground v.1.15,2013-07-17 08:40:00,
2013-07-17 04:45:00,77.2,71.3,30.17,WSW,248,2.0,2.0,82,0.00,,,0.00,Wunderground v.1.15,2013-07-17 08:45:00,
2013-07-17 04:55:00,77.1,71.2,30.17,WSW,245,1.0,2.0,82,0.00,,,0.00,Wunderground v.1.15,2013-07-17 08:55:00,
2013-07-17 05:00:00,77.0,71.1,30.17,WSW,251,1.0,1.0,82,0.00,,,0.00,Wunderground v.1.15,2013-07-17 09:00:00,
2013-07-17 05:10:00,76.9,71.0,30.17,West,260,1.0,1.0,82,0.00,,,0.00,Wunderground v.1.15,2013-07-17 09:10:00,
2013-07-17 05:15:00,76.8,70.9,30.17,WSW,246,1.0,2.0,82,0.00,,,0.00,Wunderground v.1.15,2013-07-17 09:15:00,
2013-07-17 05:20:00,76.8,71.2,30.17,WSW,247,1.0,1.0,83,0.00,,,0.00,Wunderground v.1.15,2013-07-17 09:20:00,
2013-07-17 05:30:00,76.7,71.1,30.18,West,274,1.0,1.0,83,0.00,,,0.00,Wunderground v.1.15,2013-07-17 09:30:00,
2013-07-17 05:40:00,76.4,71.2,30.18,WNW,287,2.0,3.0,84,0.00,,,0.00,Wunderground v.1.15,2013-07-17 09:40:00,
2013-07-17 05:50:00,76.1,70.9,30.18,WSW,250,2.0,2.0,84,0.00,,,0.00,Wunderground v.1.15,2013-07-17 09:50:00,
2013-07-17 05:55:00,76.1,70.9,30.18,SW,227,2.0,2.0,84,0.00,,,0.00,Wunderground v.1.15,2013-07-17 09:55:00,
2013-07-17 06:05:00,76.1,70.9,30.18,West,263,2.0,3.0,84,0.00,,,0.00,Wunderground v.1.15,2013-07-17 10:05:00,
2013-07-17 06:15:00,76.1,71.3,30.18,West,261,2.0,3.0,85,0.00,,,0.00,Wunderground v.1.15,2013-07-17 10:15:00,
2013-07-17 06:25:00,76.1,71.3,30.19,West,281,1.0,2.0,85,0.00,,,0.00,Wunderground v.1.15,2013-07-17 10:25:00,
2013-07-17 06:30:00,76.1,71.3,30.18,WSW,253,2.0,2.0,85,0.00,,,0.00,Wunderground v.1.15,2013-07-17 10:30:00,
2013-07-17 06:40:00,76.2,71.4,30.19,WSW,238,1.0,3.0,85,0.00,,,0.00,Wunderground v.1.15,2013-07-17 10:40:00,
2013-07-17 06:50:00,76.2,71.4,30.19,WSW,252,2.0,2.0,85,0.00,,,0.00,Wunderground v.1.15,2013-07-17 10:50:00,
2013-07-17 07:00:00,76.2,71.4,30.19,West,266,2.0,4.0,85,0.00,,,0.00,Wunderground v.1.15,2013-07-17 11:00:00,
2013-07-17 07:10:00,76.4,71.9,30.19,West,264,3.0,3.0,86,0.00,,,0.00,Wunderground v.1.15,2013-07-17 11:10:00,
2013-07-17 07:20:00,76.6,72.1,30.19,West,264,3.0,5.0,86,0.00,,,0.00,Wunderground v.1.15,2013-07-17 11:20:00,
2013-07-17 07:25:00,76.9,72.4,30.19,WSW,242,4.0,5.0,86,0.00,,,0.00,Wunderground v.1.15,2013-07-17 11:25:00,
2013-07-17 07:45:00,77.7,72.8,30.20,West,277,4.0,5.0,85,0.00,,,0.00,Wunderground v.1.15,2013-07-17 11:45:00,
2013-07-17 07:55:00,78.2,73.0,30.20,West,263,4.0,4.0,84,0.00,,,0.00,Wunderground v.1.15,2013-07-17 11:55:00,
2013-07-17 08:00:00,78.5,73.6,30.20,West,281,3.0,4.0,85,0.00,,,0.00,Wunderground v.1.15,2013-07-17 12:00:00,
2013-07-17 08:10:00,79.2,73.9,30.20,WNW,298,4.0,5.0,84,0.00,,,0.00,Wunderground v.1.15,2013-07-17 12:10:00,
2013-07-17 08:20:00,79.7,73.7,30.20,West,265,4.0,4.0,82,0.00,,,0.00,Wunderground v.1.15,2013-07-17 12:20:00,
2013-07-17 08:30:00,80.2,74.2,30.20,West,281,4.0,5.0,82,0.00,,,0.00,Wunderground v.1.15,2013-07-17 12:30:00,
2013-07-17 08:40:00,80.8,74.4,30.20,West,259,5.0,6.0,81,0.00,,,0.00,Wunderground v.1.15,2013-07-17 12:40:00,
2013-07-17 08:45:00,81.2,74.8,30.20,WNW,286,4.0,6.0,81,0.00,,,0.00,Wunderground v.1.15,2013-07-17 12:45:00,
2013-07-17 08:50:00,81.4,74.6,30.19,WNW,286,5.0,5.0,80,0.00,,,0.00,Wunderground v.1.15,2013-07-17 12:50:00,
2013-07-17 09:00:00,82.0,74.8,30.20,West,267,6.0,6.0,79,0.00,,,0.00,Wunderground v.1.15,2013-07-17 13:00:00,
2013-07-17 09:05:00,82.4,75.2,30.20,West,259,6.0,6.0,79,0.00,,,0.00,Wunderground v.1.15,2013-07-17 13:05:00,
2013-07-17 09:15:00,82.8,74.8,30.20,WNW,284,6.0,8.0,77,0.00,,,0.00,Wunderground v.1.15,2013-07-17 13:15:00,
2013-07-17 09:25:00,83.3,75.3,30.20,West,263,6.0,7.0,77,0.00,,,0.00,Wunderground v.1.15,2013-07-17 13:25:00,
2013-07-17 09:35:00,83.8,75.8,30.20,West,259,7.0,10.0,77,0.00,,,0.00,Wunderground v.1.15,2013-07-17 13:35:00,
2013-07-17 09:45:00,84.5,76.1,30.20,West,275,6.0,7.0,76,0.00,,,0.00,Wunderground v.1.15,2013-07-17 13:45:00,
2013-07-17 09:55:00,85.0,75.8,30.19,NW,315,6.0,10.0,74,0.00,,,0.00,Wunderground v.1.15,2013-07-17 13:55:00,
2013-07-17 10:05:00,85.2,76.0,30.19,WNW,297,7.0,11.0,74,0.00,,,0.00,Wunderground v.1.15,2013-07-17 14:05:00,
2013-07-17 10:15:00,85.6,76.4,30.19,WNW,287,6.0,6.0,74,0.00,,,0.00,Wunderground v.1.15,2013-07-17 14:15:00,
2013-07-17 10:25:00,86.0,75.9,30.19,NW,305,6.0,10.0,72,0.00,,,0.00,Wunderground v.1.15,2013-07-17 14:25:00,
2013-07-17 10:35:00,86.3,76.2,30.19,WSW,253,6.0,6.0,72,0.00,,,0.00,Wunderground v.1.15,2013-07-17 14:35:00,
2013-07-17 10:40:00,86.5,76.4,30.19,WNW,292,5.0,5.0,72,0.00,,,0.00,Wunderground v.1.15,2013-07-17 14:40:00,
2013-07-17 10:50:00,87.1,77.0,30.19,NW,312,6.0,6.0,72,0.00,,,0.00,Wunderground v.1.15,2013-07-17 14:50:00,
2013-07-17 11:00:00,87.7,76.3,30.18,WNW,292,7.0,11.0,69,0.00,,,0.00,Wunderground v.1.15,2013-07-17 15:00:00,
2013-07-17 11:10:00,88.2,76.3,30.18,NW,308,6.0,7.0,68,0.00,,,0.00,Wunderground v.1.15,2013-07-17 15:10:00,
2013-07-17 11:20:00,88.5,76.1,30.18,West,272,7.0,7.0,67,0.00,,,0.00,Wunderground v.1.15,2013-07-17 15:20:00,
2013-07-17 11:25:00,88.6,75.8,30.18,WNW,288,8.0,11.0,66,0.00,,,0.00,Wunderground v.1.15,2013-07-17 15:25:00,
2013-07-17 11:35:00,88.9,75.6,30.18,NW,315,8.0,9.0,65,0.00,,,0.00,Wunderground v.1.15,2013-07-17 15:35:00,
2013-07-17 11:45:00,89.2,75.4,30.17,West,273,8.0,13.0,64,0.00,,,0.00,Wunderground v.1.15,2013-07-17 15:45:00,
2013-07-17 11:55:00,89.4,75.6,30.18,WSW,257,8.0,11.0,64,0.00,,,0.00,Wunderground v.1.15,2013-07-17 15:55:00,
2013-07-17 12:05:00,90.0,75.2,30.17,West,269,9.0,9.0,62,0.00,,,0.00,Wunderground v.1.15,2013-07-17 16:05:00,
2013-07-17 12:10:00,90.1,75.3,30.17,WNW,288,9.0,9.0,62,0.00,,,0.00,Wunderground v.1.15,2013-07-17 16:10:00,
2013-07-17 12:20:00,90.6,74.8,30.17,West,270,9.0,9.0,60,0.00,,,0.00,Wunderground v.1.15,2013-07-17 16:20:00,
2013-07-17 12:25:00,90.8,75.0,30.17,WNW,289,8.0,10.0,60,0.00,,,0.00,Wunderground v.1.15,2013-07-17 16:25:00,
2013-07-17 12:35:00,90.8,75.5,30.17,West,273,9.0,16.0,61,0.00,,,0.00,Wunderground v.1.15,2013-07-17 16:35:00,
2013-07-17 12:45:00,91.0,74.7,30.17,West,280,9.0,9.0,59,0.00,,,0.00,Wunderground v.1.15,2013-07-17 16:45:00,
2013-07-17 12:50:00,90.5,75.2,30.17,West,279,9.0,9.0,61,0.00,,,0.00,Wunderground v.1.15,2013-07-17 16:50:00,
2013-07-17 13:00:00,90.3,75.5,30.16,West,261,8.0,8.0,62,0.00,,,0.00,Wunderground v.1.15,2013-07-17 17:00:00,
2013-07-17 13:10:00,90.8,75.5,30.16,WNW,291,8.0,8.0,61,0.00,,,0.00,Wunderground v.1.15,2013-07-17 17:10:00,
2013-07-17 13:25:00,91.2,74.9,30.16,West,276,7.0,7.0,59,0.00,,,0.00,Wunderground v.1.15,2013-07-17 17:25:00,
2013-07-17 13:30:00,91.4,74.0,30.16,West,275,7.0,10.0,57,0.00,,,0.00,Wunderground v.1.15,2013-07-17 17:30:00,
2013-07-17 13:40:00,91.0,75.2,30.16,West,278,7.0,9.0,60,0.00,,,0.00,Wunderground v.1.15,2013-07-17 17:40:00,
2013-07-17 13:45:00,91.5,74.1,30.15,WSW,250,6.0,6.0,57,0.00,,,0.00,Wunderground v.1.15,2013-07-17 17:45:00,
2013-07-17 13:55:00,90.9,75.1,30.15,WNW,297,5.0,7.0,60,0.00,,,0.00,Wunderground v.1.15,2013-07-17 17:55:00,
2013-07-17 14:15:00,90.9,75.1,30.14,WNW,298,5.0,9.0,60,0.00,,,0.00,Wunderground v.1.15,2013-07-17 18:15:00,
2013-07-17 14:20:00,90.9,74.6,30.15,West,265,6.0,9.0,59,0.00,,,0.00,Wunderground v.1.15,2013-07-17 18:20:00,
2013-07-17 14:25:00,91.1,74.8,30.14,WNW,291,7.0,10.0,59,0.00,,,0.00,Wunderground v.1.15,2013-07-17 18:25:00,
2013-07-17 14:35:00,91.0,75.2,30.14,West,272,8.0,9.0,60,0.00,,,0.00,Wunderground v.1.15,2013-07-17 18:35:00,
2013-07-17 14:40:00,90.4,76.6,30.14,West,271,8.0,9.0,64,0.00,,,0.00,Wunderground v.1.15,2013-07-17 18:40:00,
2013-07-17 14:50:00,88.9,76.1,30.14,West,264,6.0,7.0,66,0.00,,,0.00,Wunderground v.1.15,2013-07-17 18:50:00,
2013-07-17 14:55:00,89.1,76.3,30.13,WNW,292,4.0,4.0,66,0.00,,,0.00,Wunderground v.1.15,2013-07-17 18:55:00,
2013-07-17 15:00:00,89.8,75.5,30.13,West,261,3.0,3.0,63,0.00,,,0.00,Wunderground v.1.15,2013-07-17 19:00:00,
2013-07-17 15:10:00,91.1,74.8,30.13,West,259,5.0,7.0,59,0.00,,,0.00,Wunderground v.1.15,2013-07-17 19:10:00,
2013-07-17 15:15:00,91.3,75.0,30.13,WSW,250,7.0,7.0,59,0.00,,,0.00,Wunderground v.1.15,2013-07-17 19:15:00,
2013-07-17 15:25:00,91.2,74.9,30.12,WNW,284,8.0,8.0,59,0.00,,,0.00,Wunderground v.1.15,2013-07-17 19:25:00,
2013-07-17 15:30:00,91.3,75.0,30.12,West,272,6.0,6.0,59,0.00,,,0.00,Wunderground v.1.15,2013-07-17 19:30:00,
2013-07-17 15:40:00,92.1,75.7,30.11,West,273,6.0,6.0,59,0.00,,,0.00,Wunderground v.1.15,2013-07-17 19:40:00,
2013-07-17 15:50:00,91.9,74.5,30.11,WNW,288,7.0,7.0,57,0.00,,,0.00,Wunderground v.1.15,2013-07-17 19:50:00,
2013-07-17 15:55:00,91.8,74.9,30.11,West,278,7.0,7.0,58,0.00,,,0.00,Wunderground v.1.15,2013-07-17 19:55:00,
2013-07-17 16:05:00,91.4,75.1,30.11,WNW,289,7.0,7.0,59,0.00,,,0.00,Wunderground v.1.15,2013-07-17 20:05:00,
2013-07-17 16:10:00,91.7,74.8,30.10,WNW,300,8.0,8.0,58,0.00,,,0.00,Wunderground v.1.15,2013-07-17 20:10:00,
2013-07-17 16:20:00,92.3,74.9,30.10,WNW,302,11.0,11.0,57,0.00,,,0.00,Wunderground v.1.15,2013-07-17 20:20:00,
2013-07-17 16:25:00,92.2,74.8,30.10,West,279,11.0,11.0,57,0.00,,,0.00,Wunderground v.1.15,2013-07-17 20:25:00,
2013-07-17 16:35:00,92.8,75.3,30.10,WSW,238,8.0,11.0,57,0.00,,,0.00,Wunderground v.1.15,2013-07-17 20:35:00,
2013-07-17 16:40:00,92.8,74.3,30.09,WNW,293,10.0,10.0,55,0.00,,,0.00,Wunderground v.1.15,2013-07-17 20:40:00,
2013-07-17 16:45:00,92.5,73.4,30.09,WNW,296,10.0,10.0,54,0.00,,,0.00,Wunderground v.1.15,2013-07-17 20:45:00,
2013-07-17 16:55:00,93.0,75.0,30.09,West,267,9.0,11.0,56,0.00,,,0.00,Wunderground v.1.15,2013-07-17 20:55:00,
2013-07-17 17:05:00,93.2,75.2,30.09,West,280,9.0,10.0,56,0.00,,,0.00,Wunderground v.1.15,2013-07-17 21:05:00,
2013-07-17 17:15:00,93.3,75.3,30.08,WNW,295,8.0,11.0,56,0.00,,,0.00,Wunderground v.1.15,2013-07-17 21:15:00,
2013-07-17 17:25:00,93.2,75.7,30.08,West,271,8.0,9.0,57,0.00,,,0.00,Wunderground v.1.15,2013-07-17 21:25:00,
2013-07-17 17:35:00,93.0,74.4,30.08,West,269,9.0,14.0,55,0.00,,,0.00,Wunderground v.1.15,2013-07-17 21:35:00,
2013-07-17 17:40:00,93.2,74.1,30.08,West,265,9.0,9.0,54,0.00,,,0.00,Wunderground v.1.15,2013-07-17 21:40:00,
2013-07-17 17:45:00,93.4,73.7,30.08,WNW,284,7.0,9.0,53,0.00,,,0.00,Wunderground v.1.15,2013-07-17 21:45:00,
2013-07-17 17:55:00,93.4,74.3,30.08,WNW,302,8.0,12.0,54,0.00,,,0.00,Wunderground v.1.15,2013-07-17 21:55:00,
2013-07-17 18:05:00,93.6,74.5,30.07,WSW,248,7.0,8.0,54,0.00,,,0.00,Wunderground v.1.15,2013-07-17 22:05:00,
2013-07-17 18:10:00,93.2,75.2,30.07,WSW,257,7.0,8.0,56,0.00,,,0.00,Wunderground v.1.15,2013-07-17 22:10:00,
2013-07-17 18:20:00,92.8,74.8,30.07,WNW,284,7.0,7.0,56,0.00,,,0.00,Wunderground v.1.15,2013-07-17 22:20:00,
2013-07-17 18:30:00,92.9,74.4,30.07,WNW,296,8.0,8.0,55,0.00,,,0.00,Wunderground v.1.15,2013-07-17 22:30:00,
2013-07-17 18:40:00,92.7,75.2,30.07,West,273,9.0,10.0,57,0.00,,,0.00,Wunderground v.1.15,2013-07-17 22:40:00,
2013-07-17 18:45:00,92.7,74.7,30.08,West,269,10.0,10.0,56,0.00,,,0.00,Wunderground v.1.15,2013-07-17 22:45:00,
2013-07-17 18:55:00,92.5,74.5,30.08,WNW,286,10.0,15.0,56,0.00,,,0.00,Wunderground v.1.15,2013-07-17 22:55:00,
2013-07-17 19:00:00,92.4,74.4,30.07,WNW,297,9.0,10.0,56,0.00,,,0.00,Wunderground v.1.15,2013-07-17 23:00:00,
2013-07-17 19:05:00,92.2,74.2,30.07,West,266,8.0,10.0,56,0.00,,,0.00,Wunderground v.1.15,2013-07-17 23:05:00,
2013-07-17 19:15:00,92.0,75.1,30.06,WSW,251,7.0,7.0,58,0.00,,,0.00,Wunderground v.1.15,2013-07-17 23:15:00,
2013-07-17 19:25:00,91.9,74.5,30.07,West,278,8.0,8.0,57,0.00,,,0.00,Wunderground v.1.15,2013-07-17 23:25:00,
2013-07-17 19:30:00,91.5,74.6,30.07,West,261,9.0,9.0,58,0.00,,,0.00,Wunderground v.1.15,2013-07-17 23:30:00,
2013-07-17 19:40:00,91.3,74.4,30.07,West,277,8.0,8.0,58,0.00,,,0.00,Wunderground v.1.15,2013-07-17 23:40:00,
2013-07-17 19:50:00,90.9,74.1,30.08,WSW,244,8.0,8.0,58,0.00,,,0.00,Wunderground v.1.15,2013-07-17 23:50:00,
2013-07-17 19:55:00,90.8,74.5,30.08,WNW,294,7.0,10.0,59,0.00,,,0.00,Wunderground v.1.15,2013-07-17 23:55:00,
2013-07-17 20:10:00,90.2,74.4,30.08,West,263,6.0,6.0,60,0.00,,,0.00,Wunderground v.1.15,2013-07-18 00:10:00,
2013-07-17 20:15:00,89.8,74.6,30.08,West,266,7.0,7.0,61,0.00,,,0.00,Wunderground v.1.15,2013-07-18 00:15:00,
2013-07-17 20:25:00,88.8,74.1,30.08,West,268,6.0,6.0,62,0.00,,,0.00,Wunderground v.1.15,2013-07-18 00:25:00,
2013-07-17 20:30:00,88.4,74.2,30.08,West,281,6.0,6.0,63,0.00,,,0.00,Wunderground v.1.15,2013-07-18 00:30:00,
2013-07-17 20:40:00,87.8,74.1,30.08,WNW,282,5.0,5.0,64,0.00,,,0.00,Wunderground v.1.15,2013-07-18 00:40:00,
2013-07-17 20:45:00,87.6,74.4,30.08,West,273,4.0,6.0,65,0.00,,,0.00,Wunderground v.1.15,2013-07-18 00:45:00,
2013-07-17 20:55:00,87.1,73.9,30.08,West,261,4.0,5.0,65,0.00,,,0.00,Wunderground v.1.15,2013-07-18 00:55:00,
2013-07-17 21:00:00,86.9,74.2,30.08,WSW,248,3.0,3.0,66,0.00,,,0.00,Wunderground v.1.15,2013-07-18 01:00:00,
2013-07-17 21:05:00,86.8,74.1,30.08,WSW,250,3.0,4.0,66,0.00,,,0.00,Wunderground v.1.15,2013-07-18 01:05:00,
2013-07-17 21:15:00,86.3,74.0,30.08,West,271,3.0,5.0,67,0.00,,,0.00,Wunderground v.1.15,2013-07-18 01:15:00,
2013-07-17 21:25:00,85.9,74.1,30.08,West,267,3.0,4.0,68,0.00,,,0.00,Wunderground v.1.15,2013-07-18 01:25:00,
2013-07-17 21:30:00,85.7,73.9,30.08,WSW,245,3.0,4.0,68,0.00,,,0.00,Wunderground v.1.15,2013-07-18 01:30:00,
2013-07-17 21:40:00,85.3,73.5,30.08,WNW,282,2.0,2.0,68,0.00,,,0.00,Wunderground v.1.15,2013-07-18 01:40:00,
2013-07-17 21:45:00,85.0,73.7,30.08,WSW,250,3.0,3.0,69,0.00,,,0.00,Wunderground v.1.15,2013-07-18 01:45:00,
2013-07-17 21:55:00,84.5,73.6,30.09,West,262,2.0,2.0,70,0.00,,,0.00,Wunderground v.1.15,2013-07-18 01:55:00,
2013-07-17 22:10:00,83.8,73.4,30.09,WSW,246,3.0,3.0,71,0.00,,,0.00,Wunderground v.1.15,2013-07-18 02:10:00,
2013-07-17 22:15:00,83.5,73.1,30.09,WSW,247,2.0,3.0,71,0.00,,,0.00,Wunderground v.1.15,2013-07-18 02:15:00,
2013-07-17 22:25:00,83.1,73.1,30.09,West,259,1.0,2.0,72,0.00,,,0.00,Wunderground v.1.15,2013-07-18 02:25:00,
2013-07-17 22:30:00,82.9,72.9,30.10,WSW,250,2.0,3.0,72,0.00,,,0.00,Wunderground v.1.15,2013-07-18 02:30:00,
2013-07-17 22:40:00,82.7,72.7,30.09,WNW,300,3.0,3.0,72,0.00,,,0.00,Wunderground v.1.15,2013-07-18 02:40:00,
2013-07-17 22:50:00,82.6,72.7,30.09,WSW,256,3.0,3.0,72,0.00,,,0.00,Wunderground v.1.15,2013-07-18 02:50:00,
2013-07-17 23:00:00,82.4,72.5,30.09,WSW,248,3.0,3.0,72,0.00,,,0.00,Wunderground v.1.15,2013-07-18 03:00:00,
2013-07-17 23:10:00,82.3,72.4,30.08,WSW,257,3.0,3.0,72,0.00,,,0.00,Wunderground v.1.15,2013-07-18 03:10:00,
2013-07-17 23:15:00,82.1,72.2,30.08,SW,230,3.0,4.0,72,0.00,,,0.00,Wunderground v.1.15,2013-07-18 03:15:00,
2013-07-17 23:25:00,81.9,72.4,30.09,WSW,250,1.0,3.0,73,0.00,,,0.00,Wunderground v.1.15,2013-07-18 03:25:00,
2013-07-17 23:30:00,81.8,72.3,30.09,WSW,250,1.0,1.0,73,0.00,,,0.00,Wunderground v.1.15,2013-07-18 03:30:00,
2013-07-17 23:35:00,81.7,72.2,30.08,WSW,250,1.0,2.0,73,0.00,,,0.00,Wunderground v.1.15,2013-07-18 03:35:00,
2013-07-17 23:45:00,81.5,72.4,30.08,WSW,250,1.0,1.0,74,0.00,,,0.00,Wunderground v.1.15,2013-07-18 03:45:00,
2013-07-17 23:50:00,81.2,72.1,30.08,WSW,249,1.0,1.0,74,0.00,,,0.00,Wunderground v.1.15,2013-07-18 03:50:00,